Tracking 27402 objects as of 2-Jun-2023
HD Live streaming from Space Station
objects crossing your sky now

MEZNSAT

Track MEZNSAT now!
10-day predictions
MEZNSAT is classified as:


NORAD ID: 46489
Int'l Code: 2020-068D
Perigee: 525.0 km
Apogee: 548.0 km
Inclination: 97.8 °
Period: 95.2 minutes
Semi major axis: 6907 km
RCS: Unknown
Launch date: September 28, 2020
Source: (UNK)
Launch site: PLESETSK MISSILE AND SPACE COMPLEX (PKMTR)

Uplink (MHz):
Downlink (MHz): 436.600
Beacon (MHz):
Mode: 1k2/2k4/4k8 BPSK
Call sign: A68MZ
Status: Active

Your satellite tracking list
Your tracking list is empty




NASA's NSSDC Master Catalog

Two Line Element Set (TLE):
1 46489U 20068D   23152.39214293  .00008993  00000-0  52207-3 0  9991
2 46489  97.7664 102.1203 0016642 160.6222 199.5644 15.12256297146840
Source of the keplerian elements: AFSPC